Location: Gellin
(53.4498°N, 14.3207°E)
Time: 02:04:33
(UTC+00:00)

Meteor 1-25 Rocket - Pass Details

Date: 03 March 2021
Orbit: 835 x 893 km, 81.2° (Epoch: 11 April)

Event Time Altitude Azimuth Distance (km) Brightness Sun altitude
Rises 17:31:48 0° 184° (S) 3,470 7.5 -7.8°
Reaches altitude 10° 17:34:15 10° 182° (S) 2,528 6.7 -8.2°
Maximum altitude 17:39:58 73° 100° (E) 913 4.2 -9.0°
Drops below altitude 10° 17:45:38 10° 17° (NNE) 2,506 6.5 -9.9°
Sets 17:48:04 0° 15° (NNE) 3,438 7.2 -10.2°
